This is the latest recevied weather packets stored in our database for station/object DB0NU-15. If no packets are shown the sender has not sent any weather packets the latest 10 day(s).
| Time | Temp. | Humidity | Pressure | Rain* | Wind** | Luminosity | Snow |
|---|---|---|---|---|---|---|---|
| 1777221075 | 12.78° C | 42% | 1023.3 hPa | 0 mm | - | - | - |
| 1777220471 | 13.33° C | 43% | 1023.5 hPa | 0 mm | - | - | - |
| 1777219868 | 13.33° C | 41% | 1023.6 hPa | 0 mm | - | - | - |
| 1777219265 | 13.33° C | 42% | 1023.5 hPa | 0 mm | - | - | - |
| 1777218661 | 13.33° C | 40% | 1023.4 hPa | 0 mm | - | - | - |
| 1777217455 | 13.89° C | 39% | 1023.6 hPa | 0 mm | - | - | - |
| 1777216849 | 14.44° C | 38% | 1023.6 hPa | 0 mm | - | - | - |
| 1777216246 | 14.44° C | 38% | 1023.7 hPa | 0 mm | - | - | - |
| 1777215039 | 14.44° C | 40% | 1023.8 hPa | 0 mm | - | - | - |
| 1777214435 | 15° C | 38% | 1024 hPa | 0 mm | - | - | - |
| 1777213832 | 14.44° C | 40% | 1023.8 hPa | 0 mm | - | - | - |
| 1777213229 | 15° C | 39% | 1024 hPa | 0 mm | - | - | - |
| 1777212022 | 13.89° C | 41% | 1024.1 hPa | 0 mm | - | - | - |
| 1777210875 | 13.33° C | 43% | 1024.2 hPa | 0 mm | - | - | - |
| 1777210272 | 13.89° C | 41% | 1024.3 hPa | 0 mm | - | - | - |
| 1777209668 | 14.44° C | 39% | 1024.4 hPa | 0 mm | - | - | - |
| 1777209065 | 14.44° C | 40% | 1024.5 hPa | 0 mm | - | - | - |
| 1777207254 | 13.89° C | 41% | 1024.6 hPa | 0 mm | - | - | - |
| 1777206651 | 13.89° C | 39% | 1024.6 hPa | 0 mm | - | - | - |
| 1777206048 | 14.44° C | 39% | 1024.6 hPa | 0 mm | - | - | - |
| 1777205445 | 13.89° C | 40% | 1024.6 hPa | 0 mm | - | - | - |
| 1777204841 | 13.89° C | 40% | 1024.7 hPa | 0 mm | - | - | - |
| 1777204237 | 13.89° C | 40% | 1024.8 hPa | 0 mm | - | - | - |
| 1777203031 | 13.89° C | 39% | 1024.7 hPa | 0 mm | - | - | - |
| 1777202427 | 13.89° C | 40% | 1024.8 hPa | 0 mm | - | - | - |
* Rain latest hour (hover to see other rain measurements)
** Current wind speed in m/s (hover to see current wind gust speed)